Regional Weather Roundup
Issued by NWS

Home | Current Version | Previous Version | Graphics & Text | Print | Product List | Glossary On
Versions: 1 2 3 4 5 6 7 8 9 10 11 12 13 14 15 16 17 18 19 20 21 22 23 24 25 26 27 28 29 30 31 32 33 34 35 36 37 38 39 40 41 42 43 44 45 46 47 48 49 50
325
ASUS44 KLIX 231905
RWRLA
LOUISIANA WEATHER ROUNDUP
NATIONAL WEATHER SERVICE NEW ORLEANS LA
100 PM CST SUN NOV 23 2014

NOTE: "FAIR" INDICATES FEW OR NO CLOUDS BELOW 12,000 FEET WITH NO
      SIGNIFICANT WEATHER AND/OR OBSTRUCTIONS TO VISIBILITY.
      SKY/WX - SKY CONDITION AND SIGNIFICANT WEATHER.
      TMP - AIR TEMPERATURE.    DP   - DEWPOINT TEMPERATURE.
      RH  - RELATIVE HUMIDITY.  PRES - PRESSURE.
      HX  - HEAT INDEX.         WCI  - WIND CHILL INDEX.

*  THESE STATIONS ARE NOT NWS OR FAA STATIONS AND ARE NOT UNDER
   NWS QUALITY CONTROL.

LAZ040-048-061>063-065-066-069-232000-
SOUTHEAST LOUISIANA

CITY           SKY/WX    TMP DP  RH WIND       PRES   REMARKS
N.O. AUDUBON   NOT AVBL
N.O. INTL ARPT PTSUNNY   72  60  66 SW21G28   29.66F
N.O. LAKEFRONT MOSUNNY   72  61  68 SW16      29.66F
N.O. DOWNTOWN* MOCLDY    72  61  68 S16G23    29.67F
SLIDELL        MOSUNNY   72  61  68 SW10G17   29.66F
BATON ROUGE    PTSUNNY   74  61  63 SW20G30   29.61F
BOOTHVILLE     MOSUNNY   68  64  87 SW20G28   29.71S
BELLE CHASSE   PTSUNNY   72  61  68 SW18G29   29.67F
BOGALUSA*        N/A     72  60  66 SW15G23   29.64F
NEW ROADS*     MOCLDY    73  58  60 SW15      29.60F
GONZALES*      MOCLDY    72  62  71 SW15G23   29.64F
HAMMOND*       PTSUNNY   72  57  60 SW17G23   29.64F
HOUMA*         PTSUNNY   72  63  73 SW17G25   29.67F
PORT FOURCHON* CLEAR     72  64  78 SW16G26   29.72F

$$

LAZ041-044-053-054-232000-
SOUTHWEST LOUISIANA

CITY           SKY/WX    TMP DP  RH WIND       PRES   REMARKS
LAKE CHARLES   SUNNY     70  58  65 SW17G25   29.61F
LAFAYETTE      MOSUNNY   72  61  68 SW23G35   29.63F
PATTERSON      MOSUNNY   73  63  68 SW23G30   29.68F
SALT POINT       N/A     71  62  73 VRB6      29.66F
NEW IBERIA     LGT RAIN  74  61  63 SW21G30   29.64F
CHENAULT AIRPK SUNNY     72  57  60 SW15G25   29.61F

$$

LAZ027-028-232000-
CENTRAL LOUISIANA

CITY           SKY/WX    TMP DP  RH WIND       PRES   REMARKS
FORT POLK      MOSUNNY   69  60  74 SW13G22   29.56F
ALEXANDRIA INT LGT RAIN  69  60  73 SW15G21   29.53F
ALEXANDRIA     MOSUNNY   71  59  65 SW14G22   29.54F

$$

LAZ001-002-232000-
NORTHWEST LOUISIANA

CITY           SKY/WX    TMP DP  RH WIND       PRES   REMARKS
SHREVEPORT     MOSUNNY   70  59  68 SW13      29.45F
BARKSDALE AFB  MOSUNNY   70  60  69 SW13      29.45F
DTN SHREVEPORT SUNNY     70  58  65 SW15      29.45F

$$

LAZ014-016-232000-
NORTHEAST LOUISIANA

CITY           SKY/WX    TMP DP  RH WIND       PRES   REMARKS
MONROE         CLOUDY    65  63  93 SW13      29.48F
TALLULAH       LGT RAIN  64  60  87 SW12G23   29.51F

$$




USA.gov is the U.S. government's official web portal to all federal, state and local government web resources and services.